When you browse on this site, cookies collect data to enhance your experience and personalize the content and advertising you see.
Visit our Privacy Policy to learn more. By continuing to use the site, you agree to this use of cookies and data.
  • In Deutschland
  • Länderverzeichnis
  • Für 7 Tage
  • Wassertemperatur
  • Wetterkarte
  • Widgets
  • user-avatar
    Anmelden

    Stündliche Wetter Naschawar

    Heute, 17 September, Dienstag

    Zeit Temperatur Niederschläge Wind Luftdruck Luftfeuchtigkeit
    00:00 +31°C° 0 mm 1 m/S 724 mmHg 53%
    01:00 +30°C° 0 mm 1 m/S 724 mmHg 54%
    02:00 +28°C° 0 mm 0 m/S 723 mmHg 55%
    03:00 +30°C° 0 mm 1 m/S 724 mmHg 53%
    04:00 +29°C° 0 mm 1 m/S 724 mmHg 52%
    05:00 +29°C° 0 mm 1 m/S 724 mmHg 56%
    06:00 +30°C° 0 mm 1 m/S 725 mmHg 52%
    07:00 +30°C° 0 mm 2 m/S 725 mmHg 47%
    08:00 +31°C° 0 mm 2 m/S 726 mmHg 42%
    09:00 +34°C° 0 mm 2 m/S 726 mmHg 34%
    10:00 +35°C° 0 mm 2 m/S 726 mmHg 27%
    11:00 +35°C° 0 mm 1 m/S 727 mmHg 20%
    12:00 +36°C° 0 mm 1 m/S 726 mmHg 19%
    13:00 +38°C° 0 mm 2 m/S 725 mmHg 17%
    14:00 +39°C° 0 mm 2 m/S 725 mmHg 15%
    15:00 +39°C° 0 mm 2 m/S 725 mmHg 16%
    16:00 +39°C° 0 mm 2 m/S 725 mmHg 17%
    17:00 +38°C° 0 mm 2 m/S 724 mmHg 19%
    18:00 +37°C° 0 mm 2 m/S 725 mmHg 24%
    19:00 +35°C° 0 mm 2 m/S 725 mmHg 30%
    20:00 +34°C° 0 mm 2 m/S 725 mmHg 35%
    21:00 +32°C° 0 mm 1 m/S 725 mmHg 38%
    22:00 +32°C° 0 mm 1 m/S 726 mmHg 41%
    23:00 +31°C° 0 mm 1 m/S 726 mmHg 43%

    Morgen, 18 September, Mittwoch

    Zeit Temperatur Niederschläge Wind Luftdruck Luftfeuchtigkeit
    00:00 +31°C° 0 mm 1 m/S 726 mmHg 45%
    01:00 +28°C° 0 mm 0 m/S 726 mmHg 47%
    02:00 +28°C° 0 mm 0 m/S 726 mmHg 49%
    03:00 +27°C° 0 mm 0 m/S 726 mmHg 50%
    04:00 +27°C° 0 mm 0 m/S 726 mmHg 51%
    05:00 +28°C° 0 mm 1 m/S 726 mmHg 52%
    06:00 +29°C° 0 mm 1 m/S 727 mmHg 49%
    07:00 +30°C° 0 mm 1 m/S 728 mmHg 46%
    08:00 +31°C° 0 mm 1 m/S 728 mmHg 43%
    09:00 +32°C° 0 mm 1 m/S 728 mmHg 40%
    10:00 +34°C° 0 mm 1 m/S 729 mmHg 36%
    11:00 +36°C° 0 mm 2 m/S 729 mmHg 33%
    12:00 +37°C° 0 mm 2 m/S 728 mmHg 30%
    13:00 +38°C° 0 mm 2 m/S 728 mmHg 28%
    14:00 +39°C° 0 mm 2 m/S 727 mmHg 25%
    15:00 +39°C° 0 mm 2 m/S 727 mmHg 25%
    16:00 +39°C° 0 mm 2 m/S 727 mmHg 25%
    17:00 +39°C° 0 mm 2 m/S 727 mmHg 25%
    18:00 +38°C° 0 mm 2 m/S 727 mmHg 28%
    19:00 +36°C° 0 mm 2 m/S 727 mmHg 31%
    20:00 +34°C° 0 mm 1 m/S 727 mmHg 34%
    21:00 +33°C° 0 mm 1 m/S 727 mmHg 36%
    22:00 +32°C° 0 mm 1 m/S 727 mmHg 38%
    23:00 +30°C° 0 mm 0 m/S 727 mmHg 40%

    übermorgen, 19 September, Donnerstag

    Zeit Temperatur Niederschläge Wind Luftdruck Luftfeuchtigkeit
    00:00 +31°C° 0 mm 1 m/S 727 mmHg 41%
    01:00 +31°C° 0 mm 1 m/S 726 mmHg 42%
    02:00 +30°C° 0 mm 1 m/S 726 mmHg 44%
    03:00 +29°C° 0 mm 1 m/S 726 mmHg 45%
    04:00 +29°C° 0 mm 1 m/S 727 mmHg 46%
    05:00 +29°C° 0 mm 1 m/S 727 mmHg 47%
    06:00 +29°C° 0 mm 1 m/S 728 mmHg 45%
    07:00 +30°C° 0 mm 2 m/S 728 mmHg 44%
    08:00 +30°C° 0 mm 2 m/S 729 mmHg 43%
    09:00 +31°C° 0 mm 2 m/S 729 mmHg 41%
    10:00 +34°C° 0 mm 2 m/S 729 mmHg 39%
    11:00 +35°C° 0 mm 2 m/S 729 mmHg 37%
    12:00 +36°C° 0 mm 2 m/S 729 mmHg 36%
    13:00 +36°C° 0 mm 1 m/S 728 mmHg 34%
    14:00 +37°C° 0 mm 1 m/S 728 mmHg 32%
    15:00 +38°C° 0 mm 2 m/S 727 mmHg 32%
    16:00 +38°C° 0 mm 2 m/S 727 mmHg 31%
    17:00 +38°C° 0 mm 2 m/S 727 mmHg 30%
    18:00 +37°C° 0 mm 2 m/S 727 mmHg 36%
    19:00 +35°C° 0 mm 2 m/S 727 mmHg 41%
    20:00 +34°C° 0 mm 2 m/S 727 mmHg 46%
    21:00 +33°C° 0 mm 1 m/S 727 mmHg 47%
    22:00 +32°C° 0 mm 1 m/S 728 mmHg 49%
    23:00 +30°C° 0 mm 0 m/S 728 mmHg 51%

    20 September, Freitag

    Zeit Temperatur Niederschläge Wind Luftdruck Luftfeuchtigkeit
    00:00 +32°C° 0 mm 1 m/S 727 mmHg 52%
    01:00 +31°C° 0 mm 1 m/S 727 mmHg 52%
    02:00 +31°C° 0 mm 1 m/S 727 mmHg 53%
    03:00 +30°C° 0.1 mm 1 m/S 727 mmHg 55%
    04:00 +30°C° 0.1 mm 1 m/S 727 mmHg 57%
    05:00 +29°C° 0.1 mm 1 m/S 727 mmHg 58%
    06:00 +29°C° 0.1 mm 1 m/S 728 mmHg 59%
    07:00 +29°C° 0.1 mm 1 m/S 728 mmHg 60%
    08:00 +30°C° 0.1 mm 2 m/S 728 mmHg 61%
    09:00 +31°C° 0 mm 2 m/S 728 mmHg 58%
    10:00 +32°C° 0 mm 2 m/S 728 mmHg 55%
    11:00 +34°C° 0 mm 2 m/S 728 mmHg 51%
    12:00 +35°C° 0 mm 2 m/S 728 mmHg 47%
    13:00 +35°C° 0 mm 1 m/S 727 mmHg 42%
    14:00 +36°C° 0 mm 1 m/S 727 mmHg 38%
    15:00 +37°C° 0 mm 2 m/S 726 mmHg 38%
    16:00 +37°C° 0 mm 2 m/S 726 mmHg 38%
    17:00 +37°C° 0 mm 2 m/S 726 mmHg 38%
    18:00 +36°C° 0 mm 2 m/S 726 mmHg 41%
    19:00 +35°C° 0 mm 2 m/S 726 mmHg 45%
    20:00 +34°C° 0 mm 2 m/S 726 mmHg 48%
    21:00 +32°C° 0 mm 2 m/S 727 mmHg 50%
    22:00 +32°C° 0 mm 1 m/S 727 mmHg 51%
    23:00 +32°C° 0 mm 1 m/S 727 mmHg 53%

    21 September, Samstag

    Zeit Temperatur Niederschläge Wind Luftdruck Luftfeuchtigkeit
    00:00 +31°C° 0 mm 1 m/S 727 mmHg 54%
    01:00 +31°C° 0 mm 1 m/S 726 mmHg 55%
    02:00 +30°C° 0 mm 1 m/S 726 mmHg 56%
    03:00 +30°C° 0 mm 1 m/S 726 mmHg 57%
    04:00 +30°C° 0 mm 1 m/S 726 mmHg 58%
    05:00 +29°C° 0 mm 1 m/S 727 mmHg 59%
    06:00 +29°C° 0 mm 1 m/S 727 mmHg 58%
    07:00 +30°C° 0 mm 2 m/S 727 mmHg 57%
    08:00 +30°C° 0 mm 2 m/S 728 mmHg 56%
    09:00 +31°C° 0 mm 2 m/S 728 mmHg 53%
    10:00 +32°C° 0 mm 2 m/S 728 mmHg 50%
    11:00 +35°C° 0 mm 2 m/S 728 mmHg 47%
    12:00 +35°C° 0 mm 2 m/S 727 mmHg 44%
    13:00 +35°C° 0 mm 1 m/S 727 mmHg 41%
    14:00 +36°C° 0 mm 1 m/S 726 mmHg 37%
    15:00 +37°C° 0 mm 2 m/S 726 mmHg 37%
    16:00 +38°C° 0 mm 2 m/S 726 mmHg 36%
    17:00 +38°C° 0 mm 2 m/S 725 mmHg 36%
    18:00 +36°C° 0 mm 2 m/S 726 mmHg 40%
    19:00 +35°C° 0 mm 2 m/S 726 mmHg 44%
    20:00 +34°C° 0 mm 2 m/S 726 mmHg 48%
    21:00 +33°C° 0 mm 1 m/S 726 mmHg 50%
    22:00 +32°C° 0 mm 1 m/S 726 mmHg 52%
    23:00 +30°C° 0 mm 0 m/S 726 mmHg 53%

    22 September, Sonntag

    Zeit Temperatur Niederschläge Wind Luftdruck Luftfeuchtigkeit
    00:00 +31°C° 0 mm 1 m/S 726 mmHg 55%
    01:00 +31°C° 0 mm 1 m/S 726 mmHg 56%
    02:00 +31°C° 0 mm 1 m/S 726 mmHg 57%
    03:00 +30°C° 0 mm 1 m/S 727 mmHg 58%
    04:00 +30°C° 0 mm 1 m/S 727 mmHg 59%
    05:00 +29°C° 0 mm 1 m/S 727 mmHg 61%
    06:00 +30°C° 0 mm 1 m/S 727 mmHg 59%
    07:00 +30°C° 0 mm 1 m/S 728 mmHg 57%
    08:00 +31°C° 0 mm 1 m/S 729 mmHg 55%
    09:00 +32°C° 0 mm 1 m/S 729 mmHg 50%
    10:00 +34°C° 0 mm 1 m/S 729 mmHg 46%
    11:00 +35°C° 0 mm 1 m/S 729 mmHg 42%
    12:00 +36°C° 0 mm 1 m/S 728 mmHg 40%
    13:00 +36°C° 0 mm 1 m/S 728 mmHg 38%
    14:00 +37°C° 0 mm 1 m/S 727 mmHg 35%
    15:00 +38°C° 0 mm 2 m/S 727 mmHg 35%
    16:00 +38°C° 0 mm 2 m/S 726 mmHg 35%
    17:00 +38°C° 0 mm 2 m/S 726 mmHg 35%
    18:00 +37°C° 0 mm 2 m/S 726 mmHg 38%
    19:00 +36°C° 0 mm 2 m/S 726 mmHg 41%
    20:00 +34°C° 0 mm 1 m/S 726 mmHg 45%
    21:00 +34°C° 0 mm 1 m/S 726 mmHg 47%
    22:00 +33°C° 0 mm 1 m/S 726 mmHg 48%
    23:00 +31°C° 0 mm 0 m/S 726 mmHg 50%
    Mehr zeigen